Theta_e
323 323 323 323 324 325 325 325 325 325 325 325 326 326 324 320 316 314 311 309 311 314 318 319 318 318 321 322 322 320 315 316 319 320 321 322 321 324 335 340 342 342 342 339 339
323 323 323 323 323 323 323 324 324 323 324 325 324 325 325 325 321 317 314 314 310 310 313 317 318 317 321 322 322 318 315 317 317 319 320 321 321 323 339 340 341 342 341 340 340
312 316 319 321 321 321 321 321 321 320 321 322 323 324 324 325 324 314 314 314 315 315 314 314 315 315 319 319 320 317 318 317 320 321 321 320 320 323 335 333 336 340 339 339 340
307 307 311 313 315 316 316 316 316 316 316 317 318 320 322 323 324 314 314 314 314 317 316 314 314 315 318 318 318 319 318 319 320 321 322 319 321 322 323 324 326 330 339 338 338
304 304 304 304 305 305 305 305 305 304 305 305 309 312 315 322 324 322 314 313 313 315 316 317 315 318 318 318 318 318 318 320 321 322 322 322 321 320 322 324 324 326 335 339 337
301 301 300 299 298 299 299 299 299 299 299 300 300 301 303 316 321 323 324 324 324 313 315 318 318 318 319 318 317 318 319 320 321 321 322 321 321 322 322 324 324 329 331 336 337
301 299 298 298 298 298 298 299 299 299 299 300 300 300 300 304 314 322 324 324 317 314 314 317 317 319 319 319 320 320 319 317 319 321 320 321 320 320 323 323 324 328 336 335 336
300 299 298 298 298 298 298 298 299 299 299 302 301 300 300 303 306 309 313 321 315 314 313 314 315 315 318 319 319 318 316 318 319 319 321 321 321 320 323 321 321 323 330 337 337
299 299 299 299 300 299 299 299 298 298 299 306 303 301 301 304 306 309 311 313 318 316 315 314 315 314 318 317 317 314 316 318 317 319 320 319 320 319 320 318 319 319 321 325 329
301 302 302 302 302 301 301 302 302 301 303 310 308 304 303 308 315 318 318 317 316 319 319 316 316 311 313 315 314 316 318 317 317 317 317 316 315 314 318 318 316 318 319 319 321
302 302 302 303 302 302 305 309 309 310 308 311 305 304 305 311 312 317 318 318 320 320 317 313 313 313 312 316 315 316 317 316 314 315 316 316 313 313 314 315 315 317 317 318 319
303 303 303 303 303 304 308 309 308 308 308 306 306 306 307 308 308 310 318 319 318 319 313 313 313 315 312 314 316 317 317 316 314 314 315 313 313 312 312 313 316 317 318 319 320
302 301 302 302 303 305 309 309 309 309 308 306 305 305 304 304 306 306 309 315 316 316 314 316 316 313 313 313 315 316 316 316 315 314 314 314 312 314 312 314 316 316 318 319 320
301 301 301 301 301 306 309 309 308 309 302 305 308 307 308 308 306 306 306 315 313 317 315 315 314 315 315 314 314 313 314 316 315 315 314 314 314 315 314 313 312 316 317 318 319
300 300 300 300 303 309 308 309 309 310 301 305 306 309 309 309 309 314 312 309 313 313 314 315 314 316 315 315 313 314 316 316 315 315 316 314 313 316 312 314 313 313 318 318 318
300 300 300 300 301 304 308 308 308 297 293 307 310 311 311 311 311 314 313 316 316 316 315 315 315 315 315 315 315 315 316 316 316 319 321 317 315 318 315 314 314 314 316 317 318
300 300 300 300 301 302 308 307 297 292 300 307 307 307 311 312 311 314 314 316 315 313 312 313 313 313 314 315 314 314 314 316 317 320 319 319 322 322 317 315 315 313 317 317 318
297 297 299 300 301 304 308 297 289 295 303 306 307 306 306 305 305 313 314 314 306 314 314 316 314 315 313 313 313 312 313 315 319 318 317 318 321 318 316 317 318 317 316 315 314
299 298 297 300 300 305 306 292 290 299 306 306 306 304 305 305 305 304 305 306 305 305 313 315 317 312 312 313 314 315 316 314 316 316 317 316 316 315 315 315 315 312 311 311 311
299 300 299 300 300 304 300 298 303 305 305 305 306 305 306 305 304 304 305 305 306 306 305 308 311 311 312 311 313 314 314 317 316 319 317 316 315 315 314 314 309 308 309 310 311
299 300 301 300 301 304 300 293 305 304 305 305 305 306 305 306 305 305 305 305 305 306 305 306 310 309 308 313 311 308 309 313 315 316 317 317 314 313 315 310 309 307 309 309 310
299 296 301 301 299 294 301 299 303 303 304 304 305 305 305 304 305 306 305 306 305 305 306 305 307 309 308 309 307 309 311 312 311 312 314 318 317 313 311 309 310 309 309 309 309
300 302 301 302 296 298 299 301 301 301 303 304 304 304 303 304 303 304 305 305 305 304 305 305 305 303 305 307 308 313 311 311 313 310 310 314 313 310 309 309 310 309 308 308 310
299 295 302 302 300 298 298 301 301 304 302 302 303 302 303 303 303 304 305 304 304 304 305 307 306 305 303 307 307 308 308 309 310 307 309 310 309 309 308 307 307 307 307 308 310
299 297 299 301 301 300 299 301 302 303 304 303 303 302 303 304 304 304 303 303 304 304 305 304 306 306 305 305 305 307 307 307 307 307 308 308 307 307 307 306 306 306 307 309 308
299 298 299 300 301 301 303 301 303 302 304 304 303 303 303 303 303 304 303 303 303 303 304 303 304 306 306 305 305 306 305 305 306 306 306 306 306 306 306 306 306 306 308 308 308
298 298 299 297 299 298 298 300 301 301 301 302 301 301 301 301 302 303 303 303 304 304 303 304 305 305 305 305 305 305 305 305 305 305 306 306 306 306 305 305 306 307 307 307 308
Wind_Speed
16 12 11 11 11 10 11 12 12 13 15 14 14 15 16 19 16 14 12 7 7 8 9 5 3 4 2 1 3 3 4 2 4 3 5 11 8 6 2 15 9 13 6 5 22
12 12 14 15 17 18 17 17 18 17 16 17 18 17 15 18 19 14 4 7 8 10 11 8 4 3 2 2 4 3 3 7 4 1 5 10 4 10 2 5 3 8 9 8 24
20 20 23 22 22 20 22 20 21 22 20 19 21 20 16 16 16 1 2 1 2 4 7 8 6 3 2 2 4 5 4 4 3 6 8 8 10 3 9 2 6 12 13 13 26
19 18 19 19 21 19 20 19 20 21 21 20 21 21 18 12 3 3 3 2 3 4 3 4 4 3 2 3 3 2 7 7 3 4 11 7 12 5 7 6 3 5 13 17 27
16 17 16 15 18 17 17 17 17 18 19 19 20 20 17 8 13 11 10 6 7 4 3 1 2 2 2 1 2 4 3 7 11 12 16 12 8 5 9 5 6 7 13 19 28
13 13 12 13 13 14 13 15 14 15 16 17 17 16 14 8 12 13 17 20 16 10 2 1 1 2 1 1 1 3 7 13 8 13 11 7 7 2 4 5 5 8 14 20 27
11 9 9 11 10 11 13 12 14 13 15 16 15 16 17 26 12 9 11 14 11 9 4 2 2 2 1 2 4 5 6 5 5 7 6 7 5 7 13 10 7 10 17 22 27
9 6 7 9 10 10 10 11 12 12 12 13 13 13 12 11 14 14 23 15 10 9 8 7 4 5 3 3 5 4 3 4 4 4 5 9 9 7 8 6 10 11 17 23 28
6 5 5 7 8 9 8 9 11 10 11 11 9 6 11 7 8 1 9 19 16 11 9 10 5 3 2 4 4 5 3 5 6 4 2 5 4 4 11 13 12 12 12 19 26
3 3 5 5 7 6 7 9 8 8 9 10 9 6 7 4 2 1 2 5 10 11 6 7 3 2 2 4 7 6 5 4 5 3 4 6 7 9 20 25 17 19 18 18 21
3 3 4 5 6 7 6 1 2 2 5 7 3 6 5 4 5 3 1 4 5 7 6 2 3 10 13 10 4 3 4 5 1 1 6 3 10 12 24 27 19 27 29 26 27
4 3 4 4 5 5 6 7 6 6 10 10 15 23 23 24 8 1 3 5 5 4 7 1 13 6 2 5 6 4 4 12 3 4 3 5 19 12 6 14 23 27 29 29 26
4 4 4 4 4 3 8 9 4 2 4 7 5 7 5 8 8 17 7 2 3 4 6 7 3 6 6 4 6 5 9 8 6 5 4 5 12 16 4 11 20 21 21 23 22
5 5 5 4 0 2 3 4 3 1 4 3 2 0 2 3 2 5 7 4 2 7 5 6 6 9 5 3 5 6 8 9 5 2 3 3 7 16 8 13 9 22 22 22 26
6 6 7 3 2 3 1 2 3 2 3 3 1 2 4 2 4 6 5 7 4 5 5 6 1 5 0 5 9 4 3 2 3 2 5 2 3 10 8 16 7 9 21 22 23
8 7 6 5 4 3 2 2 2 6 4 3 3 1 2 1 2 4 3 4 3 2 1 4 3 4 5 2 2 2 1 2 3 4 4 8 2 22 4 7 3 5 16 25 27
9 8 6 5 3 4 4 1 5 4 5 5 3 5 3 5 3 1 3 3 2 3 3 5 4 4 5 3 2 2 4 2 1 1 9 10 9 24 1 6 9 8 26 32 29
10 9 7 5 5 6 4 5 5 3 4 4 3 4 5 8 4 3 4 3 9 3 2 2 3 1 1 6 5 5 7 5 5 4 3 3 9 9 6 6 9 15 21 29 34
4 5 6 3 5 7 5 4 6 4 3 6 2 6 7 5 4 4 5 3 4 7 2 3 4 4 5 1 2 1 1 3 1 2 2 5 12 18 20 18 11 21 30 33 35
2 3 2 6 8 9 4 3 1 2 4 5 5 5 4 7 5 5 3 5 5 5 1 2 3 4 4 4 7 3 2 2 2 2 4 4 5 11 11 4 9 12 20 29 36
3 3 2 11 12 5 3 3 0 7 4 4 2 3 5 4 4 5 5 3 6 7 8 5 2 5 3 3 1 4 2 2 1 4 4 3 6 4 4 5 5 8 23 30 36
5 2 8 16 5 4 4 4 1 2 5 4 3 4 4 6 4 5 4 2 12 5 3 4 0 3 4 6 5 3 4 4 4 4 2 2 11 5 5 5 18 17 24 32 35
8 5 13 11 4 2 1 1 2 2 2 2 2 4 2 2 4 2 4 5 10 7 4 4 1 2 6 4 3 2 1 2 2 2 4 2 11 7 22 23 23 25 31 30 30
5 2 6 5 3 6 4 1 3 2 2 4 3 1 3 1 4 3 2 4 12 7 9 3 3 6 5 3 0 5 3 1 4 2 4 15 19 29 23 20 28 36 30 30 31
3 0 2 3 4 3 2 3 4 1 1 4 2 4 4 2 2 5 4 3 5 13 2 2 3 2 5 8 9 13 12 13 13 10 9 20 16 32 27 24 33 35 34 30 25
6 5 5 5 12 5 2 2 2 4 2 2 3 2 2 5 6 1 2 3 5 6 2 3 3 3 10 9 13 20 17 16 18 19 18 20 27 26 39 37 32 31 28 25 28
7 10 6 3 2 5 3 5 4 3 2 9 4 2 7 10 10 9 14 16 14 9 5 4 2 4 5 3 8 16 13 20 16 14 20 20 26 27 23 22 29 30 30 28 29
Wind_Direction
262 262 272 277 284 299 295 300 302 306 306 308 308 309 313 314 316 313 313 291 270 252 245 255 300 316 300 214 189 148 63 205 231 205 298 331 7 9 111 147 160 188 263 256 184
243 263 267 271 280 287 284 287 293 299 298 303 304 305 311 315 320 320 341 286 251 261 269 263 260 278 267 165 174 106 131 221 218 243 305 312 308 309 127 130 177 197 251 231 186
256 257 264 268 272 276 282 285 285 287 290 292 295 302 308 312 331 111 127 78 318 279 278 265 258 254 177 193 202 156 205 221 265 293 344 317 323 264 134 295 225 218 211 193 188
254 256 260 268 271 273 275 280 282 287 288 289 289 290 301 307 296 194 227 136 350 334 323 279 224 191 132 201 165 279 237 255 287 328 332 311 318 279 215 197 213 238 229 202 198
252 256 257 261 268 270 274 276 279 283 286 285 286 289 296 270 247 253 258 266 308 296 337 309 211 176 184 260 347 203 266 270 285 296 300 297 289 280 259 247 236 224 215 214 211
248 242 254 259 270 269 273 277 277 279 283 284 285 286 285 259 259 266 257 255 265 267 332 213 247 158 14 296 170 314 285 287 302 290 283 275 283 3 351 229 247 220 217 220 221
252 242 254 263 266 269 273 275 281 283 282 284 284 283 272 257 265 257 267 245 233 240 247 252 280 225 90 299 324 297 314 324 231 255 245 214 301 234 255 254 261 245 226 226 235
251 246 258 270 270 276 272 282 284 282 285 293 292 283 262 277 263 263 245 248 236 233 251 243 266 293 203 284 350 359 53 351 293 152 259 167 260 258 270 233 268 266 249 239 239
240 241 263 280 289 297 301 292 283 276 279 293 294 273 269 280 286 269 262 250 244 242 247 256 278 264 193 95 6 356 240 247 294 236 275 178 275 281 317 318 301 294 272 265 261
265 280 271 296 304 316 318 301 285 283 275 276 254 275 258 279 313 153 313 258 233 215 245 249 226 170 39 106 228 206 214 238 246 336 358 300 254 279 293 300 301 298 291 278 277
269 285 303 316 330 338 351 121 312 270 258 224 226 264 297 306 282 195 113 160 150 173 164 183 210 218 209 205 244 173 231 240 263 343 1 302 288 274 286 291 294 293 290 289 289
258 294 317 326 327 359 53 79 22 293 304 276 256 258 259 273 297 107 191 156 168 169 124 161 238 221 100 183 231 261 271 268 292 241 195 334 291 281 246 269 275 280 289 291 291
265 285 298 306 324 70 74 49 21 258 261 290 259 263 273 234 230 261 252 118 144 162 185 195 247 44 192 166 189 213 230 267 266 309 226 252 284 295 265 242 275 274 276 283 288
271 288 295 307 306 120 89 51 51 317 50 274 270 243 161 178 252 264 212 193 142 190 171 236 259 289 228 210 204 242 193 224 258 315 274 136 287 280 288 288 259 283 287 286 292
279 287 291 299 99 152 68 56 12 348 44 354 61 69 164 160 310 25 148 203 165 166 145 228 169 63 329 232 176 218 68 173 172 202 15 149 245 292 15 299 305 301 303 301 318
276 284 287 278 241 208 171 313 342 45 255 2 113 46 82 103 18 86 127 83 133 95 268 233 215 176 196 259 81 6 48 230 183 118 251 228 11 284 217 272 300 309 318 333 333
267 266 259 238 212 182 210 280 45 125 294 350 352 13 351 14 34 72 94 52 100 126 269 341 254 207 163 186 231 167 87 332 2 174 239 139 186 242 79 296 298 304 313 328 346
255 257 247 228 192 175 176 55 89 235 290 327 9 340 70 347 51 27 100 77 19 3 109 174 348 57 352 192 205 190 167 164 211 210 292 142 226 248 332 46 350 15 10 352 348
250 254 251 203 180 179 163 66 196 204 329 342 336 51 8 352 45 60 38 66 32 14 51 40 275 342 82 336 104 311 144 186 267 328 268 225 278 292 278 277 34 7 359 352 344
118 71 145 160 160 174 88 175 112 324 343 10 67 20 45 349 38 31 56 357 358 348 340 38 294 2 334 22 26 104 254 50 42 249 249 262 251 238 288 356 20 358 345 339 336
139 105 132 154 149 126 141 183 0 39 53 56 53 68 60 12 21 2 31 38 13 336 33 35 121 294 354 55 41 346 353 46 227 158 222 270 248 218 109 109 11 337 340 339 335
155 76 151 151 78 69 146 196 109 44 45 46 76 56 54 20 19 355 31 129 6 7 23 350 31 256 230 285 311 215 204 154 153 249 273 316 269 62 114 331 346 337 329 328 322
135 98 160 159 132 141 209 137 105 83 44 57 84 63 76 125 356 337 348 302 28 37 37 353 301 349 345 9 24 87 126 125 143 114 201 206 262 340 319 315 316 309 310 311 310
153 85 148 192 87 140 134 176 186 195 200 187 155 36 73 203 191 292 280 311 339 336 314 258 238 182 194 257 289 294 293 0 270 209 267 247 294 292 291 300 302 302 306 307 305
130 246 114 156 192 136 142 140 152 136 227 165 121 208 155 205 218 225 249 302 317 307 6 117 240 266 272 262 261 256 249 273 265 249 248 279 274 275 289 292 295 299 299 298 296
142 141 165 103 142 147 138 271 174 135 170 264 169 64 150 213 205 262 345 6 251 319 50 354 262 310 284 255 253 259 248 245 243 248 256 263 264 268 279 286 284 290 293 287 296
162 124 131 9 92 119 211 199 202 176 260 243 287 351 272 275 301 295 292 277 258 274 278 266 258 287 261 203 319 281 232 230 240 233 234 249 252 269 270 274 280 287 283 289 297